STARLINK-1477, 45754

Orbit data source: Space-Track

STARLINK-1477, 45754 is a payload satellite owned by SpaceX/Seattle (US) in LEO that was launched on Sat, 13 Jun 2020 UTC via an FALCON 9 launch vehicle from the Air Force Eastern Test Range (AFETR). Payload-class satellites include a variety of spacecraft equipped with specific instruments for various scientific and technological missions. These include communications satellites like Starlink; space stations such as the ISS; scientific satellites like the Hubble; Earth observation satellites from companies like Planet Labs, Umbra, and HawkEye 360; GPS; miniature CubeSats for education and research; and military/defense satellites.

Loading next visibility...
Identifier
45754, 2020-038AA
Orbit
LEO
Last TLE update
19 hours ago
Origin
Manufacturer
SpaceX/Seattle
Mission
Operational Commercial Communications
Bus & Motor
STARLINK, Unknown motor
Mass
260 kg wet, ~248 kg dry
Launch date (UTC)
2020-06-13 (5 years ago)
Launch vehicle
FALCON 9
Launch site
Air Force Eastern Test Range (AFETR)
Object type
Payload
Rocket body
Debris
Shape & HBR
Box + 1 Pan, 8.86 m
Radar Cross Section
13.562 m², Large (>1 m²)

Expand to show TLE details & history

TLE from 19 hours ago
0 STARLINK-1477
1 45754U 20038AA  25181.66135762  .00006785  00000-0  47390-3 0  9993
2 45754  53.0541 268.0180 0001350  73.4018 286.7119 15.06402974278494
Epoch: 2025-06-30T15:52Z
TLE epoch observation values (Epoch: 2025-06-30T15:52:21.298Z)
Latitude
-0.00003°
Longitude
110.96128°
Altitude
547.813 km
Speed
7.589 km/s
True Right ascension
17h 52m 04s
True Declination
0° 00' 00"
Sunlit
Object was in full shadow at epoch
Visualization orbit readout
Latitude
-52.38047°
Longitude
3.53223°
Altitude
566.284 km
Speed
7.577 km/s
Apparent Right ascension
10h 25m 37s
Apparent Declination
-46° 17' 56"
Sunlit
Object is in daylight
Visualization observer readout
Local Sidereal Time
22:11:06
Azimuth
201.305° SSW
Elevation
-83.092°
Doppler factor
1
Orbital elements
Apogee altitude
548.408 km
Perigee altitude
546.538 km
Semi-major axis
6,925.61 km
Eccentricity
0.00014
Inclination
53.0541°
RAAN
268.018°
Arg. of periapsis
73.4018°
True anomaly
Unknown
Mean anomaly
286.7119°
Eccentric anomaly
Unknown
Mean motion
3.76579 °/min
Orbital period
95.6 mins
BSTAR
0.0004739
Loading maneuver chart data...
Loading SW <> Apogee altitude chart data...

STARLINK-1477 Visibility forecast

Observer location: undefined°, undefined°

Span
Click to sort rows by Start time (UTC) header in descending order
Start Az.
Max El. time (UTC)
Max El. Az.
Max El.
End time (UTC)
End Az.
4 mins2025-07-01 11:18:38.892Z321.517° NNW2025-07-01 11:20:38.892Z351.608° N13.506°2025-07-01 11:22:38.892Z21.763° NNE
6 mins2025-07-01 14:39:38.892Z330.673° NNW2025-07-01 14:41:38.892Z21.037° NNE35.234°2025-07-01 14:45:38.892Z107.135° ESE
4 mins2025-07-01 16:19:38.892Z265.438° W2025-07-01 16:21:38.892Z220.038° SW23.067°2025-07-01 16:23:38.892Z183.338° SSW
6 mins2025-07-02 07:51:38.892Z209.365° SW2025-07-02 07:53:38.892Z169.155° S39.079°2025-07-02 07:57:38.892Z58.283° ENE
5 mins2025-07-02 09:31:38.892Z288.311° WNW2025-07-02 09:33:38.892Z327.961° NNW23.763°2025-07-02 09:36:38.892Z25.962° NE
|